Powrót do katalogu

SURFSAT

AktywnyNaukaSSO
NORAD 23711·PAYLOAD·🇺🇸 United States

Wystrzelony Nov 4, 1995 z Vandenberg Space Force Base

Loading…

Następne Przeloty (najbliższe 24 godziny)

TLE

ŚwieżeSource: Space-Track

Epoka: Sep 14, 2026, 08:29 UTC

1 23711U 95059B   26257.35359947 -.00000046  00000-0  25312-5 0  9998
2 23711 100.4905 285.3380 0367015 253.6941 114.0359 13.12859141478610

Śledź SURFSAT w czasie rzeczywistym z AllMySat

Download on the App Store